Location: Marcé
(47.5801°N, 0.3280°W)
Time: 19:37:49
(UTC+01:00)

Vanguard 1 - Pass Details

Date: 03 December 2021
Orbit: 652 x 3830 km, 34.2° (Epoch: 16 January)

Event Time Altitude Azimuth Distance (km) Brightness Sun altitude
Rises 08:23:37 0° 279° (W) 7,329 13.9 -1.9°
Reaches altitude 10° 08:32:24 10° 260° (W) 5,622 13.5 -0.6°
Maximum altitude 08:39:07 14° 235° (SW) 4,623 13.3 0.3°
Drops below altitude 10° 08:44:34 10° 208° (SSW) 4,345 13.5 1.1°
Sets 08:49:40 0° 184° (S) 4,716 14.1 1.8°
